Regional Weather Roundup
Issued by NWS Northern Indiana

Home | Current Version | Previous Version | Text Only | Print | Product List | Glossary Off
Versions: 1 2 3 4 5 6 7 8 9 10 11 12 13 14 15 16 17 18 19 20 21 22 23 24 25 26 27 28 29 30 31 32 33 34 35 36 37 38 39 40 41 42 43 44 45 46 47 48 49 50

000
ASUS43 KIWX 280010
RWRIWX

KIWX WEATHER ROUNDUP
NATIONAL WEATHER SERVICE NORTHERN INDIANA
800 PM EDT SUN JUL 27 2014

NOTE: "FAIR" INDICATES FEW OR NO CLOUDS BELOW 12,000 FEET WITH NO
SIGNIFICANT WEATHER AND/OR OBSTRUCTIONS TO VISIBILITY.

* THESE STATIONS ARE NOT UNDER NWS QUALITY CONTROL. THEY ALSO MAY NOT
  REPORT WEATHER SUCH AS PRECIPITATION OR FOG.

INZ001>027-280100-
NORTHERN INDIANA

CITY           SKY/WX    TMP DP  RH WIND       PRES   REMARKS
GARY*          PTSUNNY   79  54  41 W21G32    29.77R
VALPARAISO     PTSUNNY   72  57  59 NW9       29.78R
6HR MIN TEMP:  71; 6HR MAX TEMP:  87; 6HR PCP: TRACE;

MICHIGAN CITY* PTSUNNY   70  57  64 NW8G17    29.78R
LAPORTE*       CLOUDY    70  57  64 NW13G21   29.78R
6HR MIN TEMP:  68; 6HR MAX TEMP:  82; 6HR PCP:  0.05;

KNOX*          CLOUDY    71  57  61 NW9       29.76R
6HR MIN TEMP:  44; 6HR MAX TEMP:  86;

SOUTH BEND     PTSUNNY   73  56  54 NW18G25   29.76R
6HR MIN TEMP:  72; 6HR MAX TEMP:  88; 6HR PCP: TRACE;

GOSHEN         MOSUNNY   74  57  55 NW18G26   29.74R
6HR MIN TEMP:  67; 6HR MAX TEMP:  88; 6HR PCP:  0.42;

MONTICELLO*    SUNNY     75  59  58 NW10G22   29.77R
6HR MIN TEMP:  69; 6HR MAX TEMP:  84; 6HR PCP:  0.12;

LOGANSPORT*    SUNNY     75  55  50 W17G24    29.77R
ROCHESTER*     MOSUNNY   75  55  50 N15G25    29.77R
WARSAW*        PTSUNNY   72  59  64 NW12      29.74R
ANGOLA*        MOSUNNY   73  61  64 N9        29.70R
FORT WAYNE     TSTM      71  64  78 W12       29.72R
6HR MIN TEMP:  65; 6HR MAX TEMP:  83; 6HR PCP:  0.42;

HUNTINGTON*    PTSUNNY   73  62  67 NW13G24   29.72R
6HR MIN TEMP:  70; 6HR MAX TEMP:  83; 6HR PCP:  0.22;

PERU/GRISSOM   SUNNY     78  60  53 W18G28    29.75R
6HR MIN TEMP:  78; 6HR MAX TEMP:  85; 6HR PCP:  0.05;

MARION*        MOSUNNY   76  58  52 W14G23    29.75R
6HR MIN TEMP:  32; 6HR MAX TEMP:  89; 6HR PCP:  0.04;


$$
INZ028>050-280100-
CENTRAL INDIANA

CITY           SKY/WX    TMP DP  RH WIND       PRES   REMARKS
LAFAYETTE      MOSUNNY   76  58  53 W17G23    29.79R
6HR MIN TEMP:  76; 6HR MAX TEMP:  85;

KOKOMO*        MOSUNNY   77  59  53 NW20G29   29.75R
6HR MIN TEMP:  72; 6HR MAX TEMP:  84; 6HR PCP:  0.18;

MUNCIE*        CLEAR     77  59  53 NW20G32   29.74R
6HR MIN TEMP:  71; 6HR MAX TEMP:  83; 6HR PCP:  0.10;

INDIANAPOLIS   MOSUNNY   78  60  53 W15G25    29.78R
6HR MIN TEMP:  72; 6HR MAX TEMP:  85; 6HR PCP:  0.14;


$$
MIZ043>046-050>051-056>058-064>065-071>073-077>080-280100-
SOUTHWEST LOWER MICHIGAN

CITY           SKY/WX    TMP DP  RH WIND       PRES   REMARKS
BATTLE CREEK   MOSUNNY   69  60  73 NW10      29.73R
6HR MIN TEMP:  65; 6HR MAX TEMP:  87; 6HR PCP:  0.51;

BENTON HARBOR  MOSUNNY   67  59  75 NW9       29.75R
6HR MIN TEMP:  67; 6HR MAX TEMP:  83; 6HR PCP: TRACE;

COLDWATER*     MOSUNNY   72  60  65 NW14G24   29.71R
6HR MIN TEMP:  72; 6HR MAX TEMP:  87;

HILLSDALE*     MOCLDY    70  62  76 N8G20     29.71R
6HR MIN TEMP:  65; 6HR MAX TEMP:  86;

HOLLAND        MOSUNNY   68  60  75 NW10G17   29.74R
6HR MIN TEMP:  65; 6HR MAX TEMP:  83; 6HR PCP:  0.23;

GRAND RAPIDS   PTSUNNY   70  62  76 NE10      29.72R
6HR MIN TEMP:  68; 6HR MAX TEMP:  86; 6HR PCP:  0.02;

KALAMAZOO      MOSUNNY   69  58  67 NW13      29.72R
6HR MIN TEMP:  68; 6HR MAX TEMP:  86; 6HR PCP:  0.12;

STURGIS*       MOSUNNY   72  57  60 NW16G24   29.73R
THREE RIVERS*  FAIR      73  59  62 NW13G18   29.73R

$$
OHZ001>008-015>018-024>025-280100-
NORTHWEST OHIO

CITY           SKY/WX    TMP DP  RH WIND       PRES   REMARKS
WAUSEON*       FAIR      73  64  73 NW10      29.68R
DEFIANCE       PTCLDY    74  63  68 W6        29.67R
6HR MIN TEMP:  71; 6HR MAX TEMP:  83; 6HR PCP: TRACE;

FINDLAY        PTCLDY    76  65  68 W15       29.65S
6HR MIN TEMP:  75; 6HR MAX TEMP:  83; 6HR PCP:  0.01;

TOLEDO EXPRESS CLOUDY    71  62  73 N8        29.67R
6HR MIN TEMP:  70; 6HR MAX TEMP:  84; 6HR PCP: TRACE;

TOLEDO METCALF MOCLDY    74  60  61 NW16G25   29.67R
6HR MIN TEMP:  74; 6HR MAX TEMP:  85;

LIMA           PTCLDY    70  66  87 W9        29.70R
6HR MIN TEMP:  68; 6HR MAX TEMP:  79; 6HR PCP:  0.18;


$$
&&


USA.gov is the U.S. government's official web portal to all federal, state and local government web resources and services.